Location: *
(46.4000°N, 12.6667°E)
Time: 04:15:51
(UTC+00:00)

Envisat - Pass Details

Date: 09 December 2021
Orbit: 764 x 766 km, 98.2° (Epoch: 16 January)

Event Time Altitude Azimuth Distance (km) Brightness Sun altitude
Rises 05:44:33 0° 360° (N) 3,244 6.0 -9.4°
Reaches altitude 10° 05:47:31 10° 342° (NNW) 2,313 5.1 -8.9°
Maximum altitude 05:50:53 18° 301° (WNW) 1,810 4.3 -8.4°
Drops below altitude 10° 05:54:14 10° 259° (W) 2,302 5.0 -7.9°
Sets 05:57:11 0° 241° (WSW) 3,223 5.9 -7.4°
